Tracking 19795 objects as of 19-Jul-2019
HD Live streaming from Space Station
objects crossing your sky now

FENGYUN 1C DEB

Track FENGYUN 1C DEB now!
10-day predictions


NORAD ID: 39537
Int'l Code: 1999-025EWE
Perigee: 844.4 km
Apogee: 1,135.8 km
Inclination: 99.1 °
Period: 104.8 minutes
Semi major axis: 7361 km
RCS: Unknown
Launch date: May 10, 1999
Source: People's Republic of China (PRC)
Launch site: Taiyaun Space Center, China (TSC)

Note: This is SATELLITE DEBRIS
aabbcc
Your satellite tracking list
Your tracking list is empty




NASA's NSSDC Master Catalog

Two Line Element Set (TLE):
1 39537U 99025EWE 19197.05039754 +.00000381 +00000-0 +38487-3 0  9997
2 39537 099.0980 049.5191 0197974 079.5271 282.8120 13.74639148270133
Source of the keplerian elements: AFSPC